www.pogodaiklimat.ru

Погода и климат >> Архив погоды >> Россия >> Свердловская область >> Кушва


ПОГОДА в Кушве

  • Прогноз погоды в Кушве
  • Монитор погоды в Кушве

АРХИВ ПОГОДЫ в Кушве

Время (UTC), дата Ветер
(напр.,м/с)
 
Видим.   Явления Облачность Т
(С)
Тd
(С)
f
(%)
Тe
(С)
Тes
(С)
Комфортность P
(гПа)
Po
(гПа)
Тmin
(С)
Tmax
(С)
R
(мм)
R24
(мм)
S
(см)
12 13.06 СЗ 5-10
{12}
50 км {ливн. осадки} 9/6 600 м
[Cb cap Ci]
+10.8 -0.5 46 +8 +10 1011.3 979.2
15 13.06 СЗ 3
{12}
50 км {ливн. осадки} 9/6 600 м
[Cb cap Ci]
+9.5 -0.5 50 +8 +8 1012.6 980.3 +11.7 0.0
18 13.06 З 2 н/о н/о +5.6 +0.7 71 +3 +3 1014.2 981.4
21 13.06 З 4 н/о н/о +4.0 +0.1 76 -0 -0 1013.8 980.8
00 14.06 З 3 н/о н/о +4.6 +0.1 73 +1 +1 1012.4 979.5
03 14.06 З 3 50 км 3/0
[Ac trans Cs]
+8.8 +0.9 58 +7 +10 1011.4 979.0 +4.0
06 14.06 З 6-12
{12}
50 км 4/3 600 м
[Cu hum Ci fib]
+11.9 -1.1 40 +10 +13 1009.6 977.6
09 14.06 СЗ 5-10
{12}
50 км 4/4 600 м
[Cu hum]
+14.8 -1.6 32 +14 +18 1008.1 976.5
12 14.06 СЗ 3
{11}
50 км 8/8 600 м
[Sc diur, vesp]
+14.8 -2.4 30 +14 +16 1007.7 976.1
15 14.06 С 2 50 км 8/8 600 м
[Sc diur, vesp Ci fib]
+13.6 -1.7 35 +13 +14 1007.6 975.8 +15.8
18 14.06 СЗ 1 н/о н/о +9.8 -0.1 50 +10 +10 1008.3 976.1
21 14.06 С 2 н/о н/о +4.2 0.0 74 +2 +2 1009.3 976.5
00 15.06 СЗ 1 н/о н/о +2.0 -0.4 84 0 0 1010.0 976.9
03 15.06 С 1 50 км 1/0
[Cc]
+8.0 +0.2 58 +8 +13 1009.3 976.9 +2.0
06 15.06 СЗ 2 50 км 4/3 600 м
[Cu hum Ci fib]
+12.6 -0.8 40 +12 +21 1008.1 976.3
09 15.06 З 2
{10}
50 км 9/6 600 м
[Cu hum Cc]
+15.5 -1.5 31 +16 +21 1006.6 975.2
12 15.06 З 4
{10}
50 км 9/8 600 м
[Cu Sc Ac As Cc]
+15.9 -1.2 31 +15 +16 1006.0 974.6
15 15.06 З 2 50 км 10/1 600 м
[Cu hum Ac As Cs]
+14.0 +1.1 41 +14 +14 1005.8 974.2 +16.9
18 15.06 ЮЗ 1 н/о н/о +10.0 +2.6 60 +10 +10 1005.1 973.1
21 15.06 З 2 н/о н/о +9.5 +4.7 72 +8 +8 1004.0 972.0
00 16.06 З 2 н/о н/о +8.7 +5.4 80 +7 +7 1003.1 971.1
03 16.06 СЗ 2 50 км слаб. ливневой дождь 10/8 600 м
[Cb cap Ci sp]
+8.9 +6.6 85 +7 +8 1002.5 970.5 +8.1 1
06 16.06 С 3 50 км {ливн. осадки} 8/5 600 м
[Cu med, cong Ci]
+11.8 +3.1 55 +10 +15 1002.6 970.9
09 16.06 ЮЗ 2
{10}
50 км в посл. час ливневой дождь 8/6 600 м
[Cb cap Cc]
+12.2 +3.5 55 +12 +17 1002.7 971.0
12 16.06 СЗ 3 50 км слаб. ливневой дождь 9/8 600 м
[Cb cap Ci]
+12.8 +1.9 47 +12 +13 1003.0 971.3
15 16.06 С 2 50 км 8/4 600 м
[Cb cap Cs]
+11.7 +1.7 50 +11 +11 1004.4 972.6 +13.5 0.0
18 16.06 З 2 н/о н/о +6.6 +1.2 68 +5 +5 1006.2 973.8
21 16.06 З 3 н/о н/о +4.7 +1.1 77 +1 +1 1006.4 973.8
00 17.06 СЗ 3 н/о н/о +4.0 +1.1 81 0 0 1007.0 974.3
03 17.06 З 3 50 км 9/0
[Ac cuf Cs]
+10.0 +2.3 59 +8 +10 1006.0 974.0 +3.6
06 17.06 ЮЗ 2 50 км в посл. час ливневой дождь 10/8 600 м
[Cb cap Ac und]
+10.6 +2.9 59 +10 +10 1005.1 973.2
09 17.06 ЮЗ 4
{13}
50 км {ливн. осадки} 9/8 600 м
[Cb cap Cc]
+13.1 +3.6 52 +12 +13 1003.3 971.7
12 17.06 З 2 50 км в посл. час ливневой дождь 9/8 600 м
[Cb cap Ci sp]
+12.4 +5.3 62 +12 +13 1002.8 971.1
15 17.06 З 2 50 км в посл. час ливневой дождь 9/8 600 м
[Cb cap Ci sp]
+10.6 +5.9 73 +9 +10 1003.3 971.4 +13.5
18 17.06 СЗ 2 н/о н/о +8.1 +5.6 84 +6 +6 1003.6 971.4
21 17.06 СЗ 3 н/о н/о +6.3 +3.2 81 +3 +3 1005.1 972.7
00 18.06 З 3 н/о н/о +5.5 +2.0 78 +2 +2 1006.5 973.9
03 18.06 СЗ 3 50 км 1/0
[Ci fib]
+10.4 +1.7 55 +9 +13 1007.2 975.1 +5.3
06 18.06 СЗ 4
{10}
50 км 9/8 600 м
[Sc diur, vesp Cc]
+11.6 +1.4 50 +10 +11 1007.5 975.6
09 18.06 СЗ 4 50 км 9/8 600 м
[Sc diur, vesp Cc]
+15.3 +0.8 37 +15 +16 1006.8 975.3
12 18.06 СЗ 4
{11}
50 км 6/4 600 м
[Cb cap Ci fib]
+16.7 +2.8 39 +16 +19 1006.3 975.0
15 18.06 З 3
{10}
50 км {ливн. осадки} 8/4 600 м
[Cb cap Ac trans Cc]
+16.4 +5.1 47 +16 +16 1006.3 975.0 +17.3
18 18.06 З 2 н/о н/о +12.7 +5.4 61 +12 +12 1007.2 975.4
21 18.06 З 2 н/о н/о +12.0 +4.1 58 +11 +11 1007.1 975.3
00 19.06 З 2 н/о н/о +12.1 +3.9 57 +11 +11 1007.6 975.7
03 19.06 ЮЗ 3 50 км слаб. ливневой дождь 9/9 600 м
[Cb cap Ac trans]
+13.7 +5.7 58 +13 +13 1007.3 975.6 +11.7
06 19.06 З 3 50 км {ливн. осадки} 8/4 600 м
[Sc Ac trans Cc]
+18.6 +6.6 45 +19 +23 1006.7 975.6
09 19.06 З 3
{11}
50 км в посл. час ливневой дождь 9/9 600 м
[Cb cap Ac As]
+17.4 +7.4 52 +17 +19 1007.2 976.0
12 19.06 З 4
{10}
50 км {ливн. осадки} 6/3 600 м
[Cb cap Ac cast Cc]
+18.0 +9.0 56 +18 +21 1007.0 975.8
15 19.06 З 3 50 км 8/1 600 м
[Sc Ac cast Cc]
+19.0 +10.1 56 +20 +20 1007.1 976.1 +19.5
18 19.06 З 1 н/о н/о +15.3 +9.8 70 +16 +16 1008.1 976.6
21 19.06 Ю 1 н/о н/о +11.5 +9.3 86 +11 +11 1008.9 977.0
00 20.06 ЮЗ 1 н/о н/о +11.2 +9.6 90 +11 +11 1009.4 977.4
03 20.06 ЮЗ 2 50 км 10/0
[Ac cast Cs]
+16.6 +11.9 74 +17 +19 1009.4 978.0 +10.9
06 20.06 ЮЗ 3 50 км {ливн. осадки} 8/5 600 м
[Cu med, cong Ci fib]
+21.7 +12.3 55 +24 +29 комфорт 1008.2 977.4

 

Местоположение метеостанции Кушва (Свердловская область, Россия): широта 58.32 долгота 59.75 высота над уровнем моря 270 м.

В архиве по умолчанию представлена погода в Кушве за последнюю неделю. Архивные данные за месяц целиком и за предыдущие месяцы, начиная с января 2011 года, Вы можете получить, выбрав интересующий диапазон дат из раскрывающегося списка и нажав кнопку "Ввод!".


*Определитесь, кто Вы:
робот инопланетянин человек

Внимание! Время в таблицах - всемирное. Для получения местного времени необходимо прибавить поправку, которая равна 5 ч.

Смотрите также архив погоды в соседних городах и на ближайших метеорологических станциях:

Погода в Качканаре (Свердловская область, Россия) (42 км)
Погода в Нижнем Тагиле (Свердловская область, Россия) (52 км)
Погода в Бисере (Пермский край, Россия) (57 км)
Погода в Висиме (Свердловская область, Россия) (73 км)
Погода в Кыне (Пермский край, Россия) (85 км)
Погода в Верхотурье (Свердловская область, Россия) (85 км)
Погода в Невьянске (Свердловская область, Россия) (96 км)
Погода в Лысьве (Пермский край, Россия) (118 км)
Погода в Алапаевске (Свердловская область, Россия) (125 км)
Погода в Кытлыме (Свердловская область, Россия) (135 км)

Пояснения к столбцам:

Ветер - указаны скорость ветра в м/с - средняя за 10 мин, порывы в срок и между сроками (в фигурных скобках) и направление, откуда дует ветер: С - северный, СВ - северо-восточный, В - восточный, ЮВ - юго-восточный, Ю - южный, ЮЗ - юго-западный, З - западный, СЗ - северо-западный.
Видимость - горизонтальная дальность видимости в метрах или километрах. При видимости от 1 до 10 км при отсутствии осадков обычно наблюдается дымка, при ухудшении видимости до 1 км и менее - туман. В сухую погоду видимость может ухудшаться дымом, пылью или мглою.
Явления - указаны атмосферные явления, наблюдавшиеся в срок или в последний час перед сроком; фигурными скобками обозначены явления, наблюдавшиеся между сроками (за 1-3 часа до срока); квадратными скобками обозначены град или гололедные отложения с указанием их диаметра в мм.
Облачность - указаны через наклонную черту общая и нижняя облачность в баллах и высота нижней границы облаков в метрах; квадратными скобками обозначены формы облаков: Ci - перистые, Cs - перисто-слоистые, Cc - перисто-кучевые, Ac - высококучевые, As - высокослоистые, Sc - слоисто-кучевые, Ns - слоисто-дождевые, Cu - кучевые, Cb - кучево-дождевые. Подробнее классификацию облаков см. в Атласе облаков (PDF).
T - Температура воздуха - температура, измеренная на высоте 2 м над землей.
Td - Температура точки росы - температура, при понижении до которой содержащийся в воздухе водяной пар достигнет насыщения.
f - Относительная влажность воздуха - влажноcть воздуха, измеренная на высоте 2 м над землей.
Te - Эффективная температура - температура, которую ощущает одетый по сезону человек в тени. Характеристика душности погоды. При расчете учитывается влияние влажности воздуха и скорости ветра на теплоощущения человека.
Tes - Эффективная температура на солнце - температура, которую ощущает человек, с поправкой на солнечный нагрев. Характеристика знойности погоды. Зависит от высоты солнца над горизонтом, облачности и скорости ветра. Ночью, в пасмурную погоду, а также при ветре 12 м/с и более поправка равна нулю.
P - Атмосферное давление - приведенное к уровню моря атмосферное давление.
Po - Атмосферное давление - измеренное на уровне метеостанции атмосферное давление.
Tmin - Минимальная температура - минимум температуры воздуха на высоте 2 м над землей.
Tmax - Максимальная температура - максимум температуры воздуха на высоте 2 м над землей.
R - Количество осадков - Количество выпавших осадков за период времени, мм. При наведении курсора мыши на число - период времени, за который выпало указанное количество осадков.
R24 - Количество осадков - Количество выпавших осадков за 24 часа, мм.
S - Снежный покров - Высота снежного покрова, см. При наведении курсора мыши на число - состояние снежного покрова и степень покрытия местности в баллах.